GCOM-W1 (SHIZUKU)

Last updated on Sun Jun 21 2026 00:03:39 GMT+0000 (Coordinated Universal Time)

1 38337U 12025A 26171.40744943 .00000335 00000+0 84254-4 0 9993 2 38337 98.2020 111.9143 0001751 73.2546 39.7525 14.57127079749507
UTC large
Height (km)
Speed (km/s)
/
Latitude / Longitude
Inclination (degrees)
Orbital Period (minutes)
Azimuth
Elevation
Range (km)
Doppler Factor

Next 0 passes for location: London (51.5072 / 0.1276)

No passes found over London.
GCOM-W1 (SHIZUKU)